• In Hungary
  • List of Countries
  • For 7 days
  • Water Temperature
  • Satellite Maps
  • Weather Map
  • News
  • Weather Widgets
  • user-avatar
    Login

    Hourly Weather Gweru

    Today, 20 July, Friday

    Time Temperature Precipitation Wind Pressure Humidity
    00:00 +7°C° 0 mm 3 mps 648 mmHg 83%
    01:00 +7°C° 0 mm 3 mps 648 mmHg 84%
    02:00 +7°C° 0 mm 3 mps 648 mmHg 85%
    03:00 +5°C° 0 mm 3 mps 648 mmHg 86%
    04:00 +6°C° 0 mm 2 mps 648 mmHg 87%
    05:00 +6°C° 0 mm 2 mps 648 mmHg 88%
    06:00 +7°C° 0 mm 3 mps 648 mmHg 84%
    07:00 +7°C° 0 mm 3 mps 648 mmHg 81%
    08:00 +7°C° 0 mm 4 mps 649 mmHg 77%
    09:00 +10°C° 0 mm 4 mps 649 mmHg 69%
    10:00 +12°C° 0 mm 4 mps 650 mmHg 61%
    11:00 +14°C° 0 mm 3 mps 650 mmHg 53%
    12:00 +16°C° 0 mm 3 mps 650 mmHg 48%
    13:00 +17°C° 0 mm 3 mps 650 mmHg 43%
    14:00 +19°C° 0 mm 3 mps 649 mmHg 38%
    15:00 +18°C° 0 mm 3 mps 649 mmHg 42%
    16:00 +17°C° 0 mm 4 mps 648 mmHg 45%
    17:00 +15°C° 0 mm 4 mps 648 mmHg 49%
    18:00 +13°C° 0 mm 4 mps 648 mmHg 58%
    19:00 +11°C° 0 mm 4 mps 648 mmHg 67%
    20:00 +10°C° 0 mm 4 mps 648 mmHg 75%
    21:00 +8°C° 0 mm 4 mps 648 mmHg 78%
    22:00 +9°C° 0 mm 3 mps 648 mmHg 80%
    23:00 +8°C° 0 mm 3 mps 648 mmHg 83%

    Tomorrow, 21 July, Saturday

    Time Temperature Precipitation Wind Pressure Humidity
    00:00 +8°C° 0 mm 3 mps 648 mmHg 84%
    01:00 +8°C° 0 mm 3 mps 648 mmHg 86%
    02:00 +8°C° 0 mm 3 mps 648 mmHg 87%
    03:00 +7°C° 0 mm 2 mps 648 mmHg 90%
    04:00 +7°C° 0 mm 2 mps 647 mmHg 92%
    05:00 +7°C° 0 mm 2 mps 647 mmHg 94%
    06:00 +8°C° 0 mm 3 mps 648 mmHg 91%
    07:00 +9°C° 0 mm 3 mps 649 mmHg 87%
    08:00 +10°C° 0 mm 4 mps 649 mmHg 84%
    09:00 +12°C° 0 mm 4 mps 650 mmHg 74%
    10:00 +14°C° 0 mm 4 mps 651 mmHg 64%
    11:00 +17°C° 0 mm 4 mps 651 mmHg 53%
    12:00 +18°C° 0 mm 4 mps 651 mmHg 49%
    13:00 +19°C° 0 mm 4 mps 651 mmHg 45%
    14:00 +20°C° 0 mm 4 mps 650 mmHg 40%
    15:00 +19°C° 0 mm 4 mps 650 mmHg 43%
    16:00 +18°C° 0 mm 4 mps 649 mmHg 46%
    17:00 +17°C° 0 mm 4 mps 649 mmHg 50%
    18:00 +14°C° 0 mm 4 mps 649 mmHg 58%
    19:00 +13°C° 0 mm 4 mps 649 mmHg 67%
    20:00 +11°C° 0 mm 3 mps 649 mmHg 75%
    21:00 +10°C° 0 mm 3 mps 649 mmHg 78%
    22:00 +10°C° 0 mm 3 mps 649 mmHg 80%
    23:00 +10°C° 0 mm 3 mps 650 mmHg 82%

    Day after tomorrow, 22 July, Sunday

    Time Temperature Precipitation Wind Pressure Humidity
    00:00 +9°C° 0 mm 3 mps 649 mmHg 81%
    01:00 +9°C° 0 mm 3 mps 649 mmHg 80%
    02:00 +9°C° 0 mm 3 mps 649 mmHg 78%
    03:00 +8°C° 0 mm 3 mps 649 mmHg 81%
    04:00 +8°C° 0 mm 3 mps 648 mmHg 84%
    05:00 +8°C° 0 mm 3 mps 648 mmHg 87%
    06:00 +8°C° 0 mm 3 mps 649 mmHg 86%
    07:00 +8°C° 0 mm 4 mps 650 mmHg 84%
    08:00 +10°C° 0 mm 4 mps 650 mmHg 82%
    09:00 +12°C° 0 mm 4 mps 651 mmHg 76%
    10:00 +13°C° 0 mm 4 mps 651 mmHg 69%
    11:00 +15°C° 0 mm 5 mps 652 mmHg 62%
    12:00 +16°C° 0 mm 5 mps 651 mmHg 58%
    13:00 +17°C° 0 mm 5 mps 651 mmHg 55%
    14:00 +19°C° 0 mm 5 mps 651 mmHg 51%
    15:00 +17°C° 0 mm 5 mps 650 mmHg 53%
    16:00 +16°C° 0 mm 5 mps 650 mmHg 55%
    17:00 +16°C° 0 mm 5 mps 649 mmHg 57%
    18:00 +15°C° 0 mm 4 mps 650 mmHg 63%
    19:00 +13°C° 0 mm 4 mps 650 mmHg 69%
    20:00 +12°C° 0 mm 4 mps 650 mmHg 74%
    21:00 +12°C° 0 mm 4 mps 650 mmHg 77%
    22:00 +11°C° 0 mm 4 mps 650 mmHg 79%
    23:00 +11°C° 0 mm 4 mps 650 mmHg 82%

    23 July, Monday

    Time Temperature Precipitation Wind Pressure Humidity
    00:00 +10°C° 0 mm 4 mps 650 mmHg 83%
    01:00 +10°C° 0 mm 3 mps 650 mmHg 84%
    02:00 +10°C° 0 mm 3 mps 649 mmHg 86%
    03:00 +9°C° 0 mm 3 mps 649 mmHg 86%
    04:00 +9°C° 0 mm 3 mps 649 mmHg 87%
    05:00 +9°C° 0 mm 3 mps 649 mmHg 88%
    06:00 +8°C° 0 mm 4 mps 650 mmHg 84%
    07:00 +10°C° 0 mm 4 mps 650 mmHg 81%
    08:00 +11°C° 0 mm 4 mps 651 mmHg 78%
    09:00 +13°C° 0 mm 5 mps 651 mmHg 70%
    10:00 +14°C° 0 mm 5 mps 652 mmHg 63%
    11:00 +16°C° 0 mm 5 mps 652 mmHg 56%
    12:00 +17°C° 0 mm 5 mps 652 mmHg 52%
    13:00 +19°C° 0 mm 5 mps 651 mmHg 49%
    14:00 +19°C° 0 mm 5 mps 651 mmHg 45%
    15:00 +19°C° 0 mm 5 mps 650 mmHg 47%
    16:00 +17°C° 0 mm 5 mps 650 mmHg 49%
    17:00 +16°C° 0 mm 5 mps 650 mmHg 50%
    18:00 +15°C° 0 mm 4 mps 650 mmHg 56%
    19:00 +13°C° 0 mm 4 mps 650 mmHg 61%
    20:00 +12°C° 0 mm 3 mps 650 mmHg 66%
    21:00 +11°C° 0 mm 3 mps 650 mmHg 68%
    22:00 +11°C° 0 mm 3 mps 650 mmHg 70%
    23:00 +10°C° 0 mm 3 mps 650 mmHg 71%

    24 July, Tuesday

    Time Temperature Precipitation Wind Pressure Humidity
    00:00 +10°C° 0 mm 3 mps 649 mmHg 74%
    01:00 +9°C° 0 mm 3 mps 649 mmHg 77%
    02:00 +9°C° 0 mm 3 mps 648 mmHg 80%
    03:00 +8°C° 0 mm 2 mps 648 mmHg 83%
    04:00 +8°C° 0 mm 2 mps 648 mmHg 87%
    05:00 +8°C° 0 mm 2 mps 648 mmHg 91%
    06:00 +9°C° 0 mm 2 mps 649 mmHg 86%
    07:00 +10°C° 0 mm 2 mps 649 mmHg 82%
    08:00 +11°C° 0 mm 3 mps 650 mmHg 77%
    09:00 +13°C° 0 mm 3 mps 650 mmHg 66%
    10:00 +17°C° 0 mm 3 mps 651 mmHg 54%
    11:00 +19°C° 0 mm 3 mps 651 mmHg 43%
    12:00 +20°C° 0 mm 3 mps 651 mmHg 39%
    13:00 +21°C° 0 mm 3 mps 650 mmHg 35%
    14:00 +22°C° 0 mm 3 mps 650 mmHg 31%
    15:00 +21°C° 0 mm 3 mps 649 mmHg 33%
    16:00 +21°C° 0 mm 3 mps 649 mmHg 35%
    17:00 +20°C° 0 mm 3 mps 648 mmHg 37%
    18:00 +18°C° 0 mm 3 mps 648 mmHg 45%
    19:00 +16°C° 0 mm 3 mps 648 mmHg 52%
    20:00 +13°C° 0 mm 3 mps 648 mmHg 59%
    21:00 +13°C° 0 mm 3 mps 648 mmHg 63%
    22:00 +12°C° 0 mm 3 mps 648 mmHg 67%
    23:00 +12°C° 0 mm 2 mps 648 mmHg 71%

    25 July, Wednesday

    Time Temperature Precipitation Wind Pressure Humidity
    00:00 +10°C° 0 mm 2 mps 647 mmHg 74%
    01:00 +10°C° 0 mm 2 mps 647 mmHg 77%
    02:00 +10°C° 0 mm 1 mps 646 mmHg 79%
    03:00 +10°C° 0 mm 1 mps 646 mmHg 80%
    04:00 +9°C° 0 mm 1 mps 646 mmHg 81%
    05:00 +9°C° 0 mm 1 mps 646 mmHg 81%
    06:00 +10°C° 0 mm 1 mps 646 mmHg 75%
    07:00 +11°C° 0 mm 1 mps 647 mmHg 68%
    08:00 +12°C° 0 mm 1 mps 648 mmHg 61%
    09:00 +16°C° 0 mm 1 mps 649 mmHg 51%
    10:00 +20°C° 0 mm 1 mps 650 mmHg 41%
    11:00 +21°C° 0 mm 0 mps 650 mmHg 31%
    12:00 +24°C° 0 mm 1 mps 650 mmHg 27%
    13:00 +25°C° 0 mm 1 mps 649 mmHg 23%
    14:00 +26°C° 0 mm 1 mps 649 mmHg 19%
    15:00 +25°C° 0 mm 1 mps 648 mmHg 20%
    16:00 +24°C° 0 mm 1 mps 648 mmHg 21%
    17:00 +23°C° 0 mm 2 mps 647 mmHg 22%
    18:00 +19°C° 0 mm 2 mps 647 mmHg 26%
    19:00 +17°C° 0 mm 2 mps 646 mmHg 31%
    20:00 +15°C° 0 mm 2 mps 646 mmHg 36%
    21:00 +14°C° 0 mm 1 mps 646 mmHg 38%
    22:00 +14°C° 0 mm 1 mps 646 mmHg 39%
    23:00 +13°C° 0 mm 1 mps 646 mmHg 41%
    Show more